Weather History for Cheyenne, WY

Change the Weather History Date:

Sunday, February 3, 2013

  Actual Average Record
Temperature  
Mean Temperature 36 °F 28 °F  
Max Temperature 51 °F 39 °F 65 °F (1954)
Min Temperature 21 °F 18 °F -25 °F (1883)
Degree Days  
Heating Degree Days 29 37  
Month to date heating degree days 93 111  
Since 1 July heating degree days 3944 4138  
Cooling Degree Days 0 0  
Month to date cooling degree days 0 0  
Year to date cooling degree days 0 0  
Moisture  
Dew Point 4 °F    
Average Humidity 36    
Maximum Humidity 62    
Minimum Humidity 10    
Precipitation  
Precipitation 0.00 in 0.01 in 0.34 in (1932)
Month to date precipitation T 0.04  
Year to date precipitation 0.24 0.37  
Snow  
Snow 0.00 in 0.30 in 5.00 in (1932)
Month to date snowfall T 0.8  
Since 1 July snowfall 28.8 29.4  
Snow Depth 0.00 in    
Sea Level Pressure  
Sea Level Pressure 30.03 in    
Wind  
Wind Speed 10 mph (West)    
Max Wind Speed 28 mph    
Max Gust Speed 35 mph    
Visibility 10 miles    
Events      
T = Trace of Precipitation, MM = Missing Value Source: NWS Daily Summary

Daily Weather History Graph

Daily Weather History Graph

Search for Another Location

Airport:

Trip Planner

Search our weather history database for the weather conditions in past years. The results will help you decide how hot, cold, wet, or windy it might be!

Date:

Astronomy

Feb. 03, 2013 Rise Set
Actual Time 7:07 AM MST 5:18 PM MST
Civil Twilight 6:38 AM MST 5:47 PM MST
Nautical Twilight 6:05 AM MST 6:20 PM MST
Astronomical Twilight 5:33 AM MST 6:53 PM MST
Moon 12:38 AM MST (2/3) 10:57 AM MST (2/3)
Length of Visible Light 11h 09m
Length of Day
10h 11m
Waning Gibbous, 48% of the Moon is Illuminated
Feb 3
Waning Gibbous
Feb 10
New
Feb 17
First Quarter
Feb 25
Full
Mar 4
Last Quarter

Hourly Weather History & Observations

Time (MST) Temp. Windchill Dew Point Humidity Pressure Visibility Wind Dir Wind Speed Gust Speed Precip Events Conditions
12:53 AM 27.0 °F 19.5 °F 12.0 °F 53% 30.21 in 10.0 mi SSW 6.9 mph - N/A   Clear
1:53 AM 25.0 °F - 10.9 °F 55% 30.19 in 10.0 mi Calm Calm - N/A   Clear
2:53 AM 24.1 °F - 10.9 °F 57% 30.19 in 10.0 mi Calm Calm - N/A   Clear
3:53 AM 24.1 °F 13.7 °F 12.0 °F 60% 30.19 in 10.0 mi SW 10.4 mph - N/A   Clear
4:53 AM 28.0 °F 20.8 °F 12.0 °F 51% 30.15 in 10.0 mi SSW 6.9 mph - N/A   Clear
5:53 AM 30.9 °F 27.5 °F 10.9 °F 43% 30.14 in 10.0 mi SSW 3.5 mph - N/A   Clear
6:53 AM 21.9 °F - 10.0 °F 60% 30.20 in 10.0 mi Calm Calm - N/A   Clear
7:53 AM 26.1 °F - 10.9 °F 53% 30.14 in 10.0 mi Calm Calm - N/A   Clear
8:53 AM 37.9 °F 29.2 °F 5.0 °F 25% 30.10 in 10.0 mi WSW 15.0 mph 19.6 mph N/A   Clear
9:53 AM 42.1 °F 38.4 °F 1.9 °F 19% 30.05 in 10.0 mi South 5.8 mph - N/A   Clear
10:53 AM 46.9 °F - 1.9 °F 16% 30.00 in 10.0 mi WSW 6.9 mph - N/A   Clear
11:53 AM 50.0 °F - -5.1 °F 10% 29.94 in 10.0 mi West 18.4 mph 24.2 mph N/A   Clear
12:53 PM 50.0 °F - -6.0 °F 10% 29.91 in 10.0 mi West 25.3 mph 33.4 mph N/A   Clear
1:53 PM 50.0 °F - -4.0 °F 11% 29.89 in 10.0 mi West 20.7 mph - N/A   Clear
2:53 PM 48.9 °F - -2.9 °F 12% 29.91 in 10.0 mi WNW 12.7 mph 20.7 mph N/A   Clear
3:53 PM 46.9 °F - -0.9 °F 14% 29.92 in 10.0 mi West 17.3 mph - N/A   Clear
4:53 PM 44.1 °F 37.7 °F 1.9 °F 17% 29.93 in 10.0 mi West 12.7 mph - N/A   Clear
5:53 PM 37.9 °F 32.1 °F 1.9 °F 22% 29.92 in 10.0 mi West 8.1 mph - N/A   Clear
6:53 PM 36.0 °F 28.0 °F 3.0 °F 25% 30.00 in 10.0 mi West 11.5 mph - N/A   Clear
7:53 PM 35.1 °F 26.9 °F 3.0 °F 26% 29.99 in 10.0 mi NW 11.5 mph - N/A   Clear
8:53 PM 34.0 °F 24.6 °F 3.0 °F 27% 29.95 in 10.0 mi WNW 13.8 mph - N/A   Clear
9:53 PM 28.9 °F 18.2 °F 3.9 °F 35% 29.95 in 10.0 mi WNW 13.8 mph - N/A   Clear
10:53 PM 30.0 °F 21.7 °F 3.9 °F 33% 29.93 in 10.0 mi WNW 9.2 mph - N/A   Clear
11:53 PM 28.0 °F 22.8 °F 3.9 °F 36% 29.92 in 10.0 mi WSW 4.6 mph - N/A   Clear